CW4713 Weather Reports


Display with metric or nautical units.
time (UTC)temp
F
wind
direction
speed
MPH
gust
MPH
rain 1hr
in
rain 24hr
in
rain mn
in
humidity
%
barometer
mb
20260509045804 43 317 1.0 3.0 0.00 0.00 0.00 74 1000.6
20260509045306 44 322 0.0 2.0 0.00 0.00 0.00 74 1000.6
20260509044805 44 335 2.0 6.0 0.00 0.00 0.00 73 1000.7
20260509044304 44 350 2.0 5.0 0.00 0.00 0.00 73 1000.8
20260509043804 44 327 3.0 5.0 0.00 0.00 0.00 73 1000.8
20260509043304 44 324 0.0 5.0 0.00 0.00 0.00 73 1000.8
20260509042804 44 9 1.0 5.0 0.00 0.00 0.00 73 1000.8
20260509042306 44 3 1.0 6.0 0.00 0.00 0.00 73 1000.9
20260509041803 44 1 4.0 7.0 0.00 0.00 0.00 73 1001.0
20260509041304 44 342 3.0 6.0 0.00 0.00 0.00 72 1001.1
20260509040804 44 356 3.0 6.0 0.00 0.00 0.00 72 1001.1
20260509040304 45 333 4.0 7.0 0.00 0.00 0.00 72 1001.2
20260509035804 45 296 1.0 5.0 0.00 0.00 0.00 72 1001.2
20260509035306 45 321 4.0 8.0 0.00 0.00 0.00 71 1001.2
20260509034804 45 309 3.0 6.0 0.00 0.00 0.00 70 1001.3
20260509024305 46 313 2.0 5.0 0.00 0.00 0.00 66 1001.8
20260509023804 46 338 1.0 5.0 0.00 0.00 0.00 66 1001.9
20260509023304 46 246 1.0 3.0 0.00 0.00 0.00 66 1001.9
20260509022804 46 273 2.0 3.0 0.00 0.00 0.00 66 1001.9
20260509022306 46 193 1.0 2.0 0.00 0.00 0.00 66 1002.0
20260509021804 46 232 1.0 2.0 0.00 0.00 0.00 66 1002.1
20260509021305 46 281 1.0 2.0 0.00 0.00 0.00 66 1002.2
20260509020804 46 297 1.0 3.0 0.00 0.00 0.00 66 1002.3
20260509020304 46 264 1.0 3.0 0.00 0.00 0.00 66 1002.3
20260509015804 46 294 2.0 6.0 0.00 0.00 0.00 66 1002.4
20260509015306 46 282 2.0 5.0 0.00 0.00 0.00 66 1002.5
20260509014804 46 185 0.0 2.0 0.00 0.00 0.00 66 1002.5
20260509014305 46 249 1.0 6.0 0.00 0.00 0.00 66 1002.6
20260509013805 46 124 0.0 0.0 0.00 0.00 0.00 66 1002.7
20260509002804 47 280 2.0 5.0 0.00 0.00 0.00 64 1003.7
20260509002306 47 238 6.0 8.0 0.00 0.00 0.00 64 1003.6
20260509001804 47 199 2.0 6.0 0.00 0.00 0.00 64 1003.8
20260509001304 46 205 3.0 6.0 0.00 0.00 0.00 64 1003.9
20260509000804 46 118 1.0 3.0 0.00 0.00 0.00 64 1004.0
20260509000304 46 316 2.0 3.0 0.00 0.00 0.00 64 1004.1
20260508235804 46 16 1.0 5.0 0.00 0.00 0.00 64 1004.2
20260508235306 46 167 5.0 7.0 0.00 0.00 0.00 63 1004.3
20260508234804 46 205 3.0 7.0 0.00 0.00 0.00 63 1004.3
20260508234304 46 275 2.0 5.0 0.00 0.00 0.00 63 1004.3
20260508233804 47 235 2.0 6.0 0.00 0.00 0.00 62 1004.4
20260508233304 47 248 1.0 5.0 0.00 0.00 0.00 62 1004.5
20260508232805 47 227 3.0 8.0 0.00 0.00 0.00 61 1004.5
20260508222306 46 279 1.0 2.0 0.00 0.00 0.00 63 1005.1
20260508221804 46 213 2.0 3.0 0.00 0.00 0.00 63 1005.2
20260508221304 46 155 3.0 6.0 0.00 0.00 0.00 63 1005.2
20260508220804 46 175 3.0 6.0 0.00 0.00 0.00 62 1005.2
20260508220305 46 177 4.0 8.0 0.00 0.00 0.00 62 1005.4
20260508215804 46 214 3.0 6.0 0.00 0.00 0.00 62 1005.4
20260508215306 46 192 3.0 5.0 0.00 0.00 0.00 61 1005.4
20260508214804 46 199 2.0 3.0 0.00 0.00 0.00 61 1005.4
20260508214304 46 308 0.0 0.0 0.00 0.00 0.00 60 1005.5
20260508213804 46 308 0.0 1.0 0.00 0.00 0.00 61 1005.5
20260508213304 46 282 0.0 0.0 0.00 0.00 0.00 62 1005.6
20260508212804 46 297 2.0 5.0 0.00 0.00 0.00 62 1005.6
20260508212306 46 296 2.0 5.0 0.00 0.00 0.00 62 1005.7
20260508211803 46 340 2.0 5.0 0.00 0.00 0.00 62 1005.7
20260508211303 46 325 3.0 7.0 0.00 0.00 0.00 62 1005.8
20260508210804 46 356 3.0 7.0 0.00 0.00 0.00 62 1005.8
20260508210304 46 346 1.0 3.0 0.00 0.00 0.00 62 1005.9
20260508205804 46 8 4.0 6.0 0.00 0.00 0.00 62 1005.9
20260508205306 46 47 0.0 2.0 0.00 0.00 0.00 63 1005.9
20260508204804 46 46 2.0 7.0 0.00 0.00 0.00 62 1006.1
20260508204304 46 3 2.0 7.0 0.00 0.00 0.00 62 1006.1
20260508203804 47 310 3.0 8.0 0.00 0.00 0.00 63 1006.3
20260508203304 46 9 5.0 9.0 0.00 0.00 0.00 62 1006.3
20260508202804 46 344 3.0 5.0 0.00 0.00 0.00 64 1006.3
20260508202307 46 345 1.0 5.0 0.00 0.00 0.00 64 1006.5
20260508201804 46 310 1.0 5.0 0.00 0.00 0.00 64 1006.5
20260508201304 46 331 3.0 6.0 0.00 0.00 0.00 65 1006.6
20260508200804 46 332 6.0 9.0 0.00 0.00 0.00 64 1006.6
20260508200304 46 340 6.0 12.0 0.00 0.00 0.00 65 1006.6
20260508195804 46 311 3.0 6.0 0.00 0.00 0.00 66 1006.7
20260508195306 45 344 2.0 6.0 0.00 0.00 0.00 65 1006.7
20260508194804 45 340 3.0 7.0 0.00 0.00 0.00 65 1006.8
20260508194304 45 332 5.0 9.0 0.00 0.00 0.00 65 1006.8
20260508193804 45 351 3.0 9.0 0.00 0.00 0.00 66 1006.9
20260508193304 45 4 5.0 9.0 0.00 0.00 0.00 65 1007.0
20260508192804 45 355 6.0 14.0 0.00 0.00 0.00 66 1007.0
20260508192306 45 354 6.0 14.0 0.00 0.00 0.00 67 1007.1
20260508191804 44 357 7.0 10.0 0.00 0.00 0.00 68 1007.2
20260508191304 44 354 6.0 8.0 0.00 0.00 0.00 68 1007.2
20260508190804 44 355 6.0 10.0 0.00 0.00 0.00 68 1007.3
20260508190303 44 345 7.0 12.0 0.00 0.00 0.00 68 1007.4
20260508185804 44 336 7.0 12.0 0.00 0.00 0.00 69 1007.4
20260508185306 44 354 5.0 9.0 0.00 0.00 0.00 69 1007.4
20260508184804 44 352 5.0 9.0 0.00 0.00 0.00 70 1007.5
20260508184304 44 333 6.0 12.0 0.00 0.00 0.00 70 1007.5
20260508183804 44 340 7.0 9.0 0.00 0.00 0.00 70 1007.6
20260508183304 44 350 7.0 12.0 0.00 0.00 0.00 70 1007.7
20260508182804 44 351 6.0 12.0 0.00 0.00 0.00 71 1007.8
20260508182306 44 340 5.0 9.0 0.00 0.00 0.00 72 1007.9
20260508181804 44 352 8.0 12.0 0.00 0.00 0.00 72 1008.0
20260508181304 44 336 6.0 10.0 0.00 0.00 0.00 72 1008.1
20260508180804 43 352 7.0 10.0 0.00 0.00 0.00 73 1008.2
20260508170805 41 351 6.0 8.0 0.00 0.00 0.00 78 1008.9
20260508170304 41 345 4.0 6.0 0.00 0.00 0.00 78 1008.9
20260508165804 41 339 4.0 6.0 0.00 0.00 0.00 78 1009.0
20260508165306 41 335 3.0 7.0 0.00 0.00 0.00 78 1009.1
20260508164804 41 349 4.0 7.0 0.00 0.00 0.00 78 1009.1
20260508164304 41 48 2.0 7.0 0.00 0.00 0.00 79 1009.1
20260508163804 41 348 2.0 5.0 0.00 0.00 0.00 79 1009.2
20260508163305 41 356 3.0 5.0 0.00 0.00 0.00 79 1009.2
20260508162805 41 334 2.0 6.0 0.00 0.00 0.00 79 1009.2
20260508162306 41 354 5.0 8.0 0.00 0.00 0.00 79 1009.3
20260508161804 40 0 4.0 8.0 0.00 0.00 0.00 80 1009.3
20260508161304 40 22 2.0 7.0 0.00 0.00 0.00 80 1009.3
20260508160804 40 347 3.0 8.0 0.00 0.00 0.00 80 1009.3
20260508160304 40 2 3.0 7.0 0.00 0.00 0.00 80 1009.3
20260508155804 40 63 1.0 7.0 0.00 0.00 0.00 81 1009.4
20260508155306 40 28 4.0 7.0 0.00 0.00 0.00 81 1009.4
20260508154804 40 37 3.0 7.0 0.00 0.00 0.00 81 1009.4
20260508154304 40 21 1.0 5.0 0.00 0.00 0.00 81 1009.5
20260508153804 39 51 3.0 5.0 0.00 0.00 0.00 81 1009.5
20260508153304 39 64 1.0 5.0 0.00 0.00 0.00 81 1009.6
20260508152804 39 34 3.0 6.0 0.00 0.00 0.00 81 1009.6
20260508152306 39 18 3.0 8.0 0.00 0.00 0.00 81 1009.7
20260508151804 39 25 3.0 7.0 0.00 0.00 0.00 82 1009.7
20260508151304 39 44 4.0 7.0 0.00 0.00 0.00 82 1009.7
20260508150805 39 16 2.0 6.0 0.00 0.00 0.00 82 1009.8
20260508150304 39 14 3.0 7.0 0.00 0.00 0.00 82 1009.8
20260508145805 39 27 3.0 7.0 0.00 0.00 0.00 82 1009.9
20260508145306 39 48 2.0 5.0 0.00 0.00 0.00 82 1009.9
20260508144803 39 28 3.0 7.0 0.00 0.00 0.00 82 1010.0
20260508144304 39 26 5.0 7.0 0.00 0.00 0.00 82 1010.0
20260508143804 39 9 4.0 7.0 0.00 0.00 0.00 82 1010.0
20260508143304 39 13 3.0 7.0 0.00 0.00 0.00 82 1010.0
20260508142804 39 37 3.0 6.0 0.00 0.00 0.00 82 1010.1
20260508142306 39 32 3.0 6.0 0.00 0.00 0.00 82 1010.1
20260508141804 39 28 3.0 6.0 0.00 0.00 0.00 82 1010.2
20260508141303 39 6 3.0 6.0 0.00 0.00 0.00 82 1010.3
20260508140804 39 19 3.0 6.0 0.00 0.00 0.00 82 1010.4
20260508140304 39 32 3.0 6.0 0.00 0.00 0.00 82 1010.5
20260508135804 39 6 2.0 5.0 0.00 0.00 0.00 82 1010.5
20260508135306 39 25 3.0 7.0 0.00 0.00 0.00 82 1010.5
20260508134804 39 39 4.0 7.0 0.00 0.00 0.00 82 1010.6
20260508134303 39 24 4.0 7.0 0.00 0.00 0.00 82 1010.6
20260508133804 39 28 6.0 8.0 0.00 0.00 0.00 82 1010.6
20260508133304 39 24 6.0 9.0 0.00 0.00 0.00 82 1010.7
20260508132804 39 25 5.0 8.0 0.00 0.00 0.00 82 1010.8
20260508132306 39 37 3.0 7.0 0.00 0.00 0.00 82 1010.8
20260508131804 39 44 4.0 8.0 0.00 0.00 0.00 82 1010.9
20260508131304 39 19 5.0 7.0 0.00 0.00 0.00 82 1010.9
20260508130804 39 40 4.0 7.0 0.00 0.00 0.00 82 1011.0
20260508130304 39 24 3.0 6.0 0.00 0.00 0.00 82 1011.0
20260508125804 38 54 2.0 5.0 0.00 0.00 0.00 82 1011.1
20260508125306 38 8 1.0 2.0 0.00 0.00 0.00 82 1011.2
20260508124804 38 18 1.0 3.0 0.00 0.00 0.00 82 1011.3
20260508124304 39 12 2.0 3.0 0.00 0.00 0.00 82 1011.3
20260508123804 39 25 2.0 3.0 0.00 0.00 0.00 82 1011.3
20260508123304 39 17 2.0 5.0 0.00 0.00 0.00 82 1011.4
20260508122804 39 59 3.0 5.0 0.00 0.00 0.00 82 1011.4
20260508122307 39 26 1.0 6.0 0.00 0.00 0.00 82 1011.5
20260508121803 39 39 2.0 5.0 0.00 0.00 0.00 81 1011.6
20260508121304 39 11 2.0 6.0 0.00 0.00 0.00 81 1011.6
20260508120804 39 5 1.0 3.0 0.00 0.00 0.00 81 1011.7
20260508120304 39 306 0.0 1.0 0.00 0.00 0.00 81 1011.8
20260508115804 39 320 0.0 1.0 0.00 0.00 0.00 81 1011.8
20260508115306 39 48 0.0 0.0 0.00 0.00 0.00 81 1011.9
20260508114804 39 48 0.0 0.0 0.00 0.00 0.00 81 1011.9
20260508114304 39 48 0.0 0.0 0.00 0.00 0.00 81 1012.0
20260508113804 39 48 0.0 1.0 0.00 0.00 0.00 81 1012.0
20260508113304 39 65 1.0 3.0 0.00 0.00 0.00 81 1012.1
20260508112804 39 43 3.0 6.0 0.00 0.00 0.00 81 1012.1
20260508112306 39 59 3.0 7.0 0.00 0.00 0.00 81 1012.2
20260508111804 39 71 2.0 5.0 0.00 0.00 0.00 81 1012.3
20260508111304 39 59 3.0 6.0 0.00 0.00 0.00 81 1012.4
20260508110804 39 241 0.0 0.0 0.00 0.00 0.00 81 1012.4
20260508110304 39 241 0.0 0.0 0.00 0.00 0.00 81 1012.4
20260508105804 39 241 0.0 1.0 0.00 0.00 0.00 81 1012.6
20260508105306 39 239 0.0 0.0 0.00 0.00 0.00 81 1012.6
20260508104805 39 240 0.0 1.0 0.00 0.00 0.00 81 1012.7
20260508104303 40 25 1.0 5.0 0.00 0.00 0.00 80 1012.7
20260508103804 40 32 2.0 6.0 0.00 0.00 0.00 81 1012.6
20260508103304 40 34 3.0 6.0 0.00 0.00 0.00 81 1012.6
20260508102804 40 2 5.0 8.0 0.00 0.00 0.00 81 1012.6
20260508102306 40 10 3.0 8.0 0.00 0.00 0.00 80 1012.6
20260508101804 40 37 3.0 6.0 0.00 0.00 0.00 80 1012.7
20260508101304 40 55 3.0 6.0 0.00 0.00 0.00 80 1012.7
20260508100804 40 23 5.0 7.0 0.00 0.00 0.00 79 1012.8
20260508100304 40 23 3.0 6.0 0.00 0.00 0.00 79 1012.8
20260508095804 40 44 4.0 7.0 0.00 0.00 0.00 79 1012.8
20260508095306 40 1 3.0 6.0 0.00 0.00 0.00 78 1012.8
20260508094805 40 342 0.0 3.0 0.00 0.00 0.00 78 1012.9
20260508094304 40 337 1.0 5.0 0.00 0.00 0.00 78 1012.8
20260508093803 40 3 1.0 5.0 0.00 0.00 0.00 77 1012.8
20260508093304 40 109 0.0 1.0 0.00 0.00 0.00 77 1012.8
20260508092804 40 120 0.0 1.0 0.00 0.00 0.00 77 1012.9
20260508092312 40 23 0.0 2.0 0.00 0.00 0.00 77 1013.0
20260508091804 40 358 3.0 5.0 0.00 0.00 0.00 76 1013.0
20260508091304 41 12 2.0 3.0 0.00 0.00 0.00 76 1013.0
20260508090804 41 345 1.0 2.0 0.00 0.00 0.00 76 1013.0
20260508090304 41 61 0.0 0.0 0.00 0.00 0.00 76 1013.1
20260508085804 41 61 0.0 0.0 0.00 0.00 0.00 76 1013.0
20260508085306 41 61 0.0 1.0 0.00 0.00 0.00 76 1013.1
20260508084804 41 17 0.0 3.0 0.00 0.00 0.00 75 1013.1
20260508074305 42 274 0.0 0.0 0.00 0.01 0.00 73 1013.5
20260508073804 42 296 2.0 3.0 0.00 0.01 0.00 73 1013.5
20260508073304 42 244 1.0 2.0 0.00 0.01 0.00 73 1013.5
20260508072804 42 244 1.0 2.0 0.00 0.01 0.00 73 1013.6
20260508072307 42 254 0.0 0.0 0.00 0.02 0.00 73 1013.6
20260508071804 42 254 1.0 1.0 0.00 0.02 0.00 72 1013.6
20260508071304 42 212 0.0 2.0 0.00 0.03 0.00 72 1013.7
20260508070804 43 212 2.0 5.0 0.00 0.03 0.00 72 1013.7
20260508070305 43 157 2.0 6.0 0.00 0.03 0.00 72 1013.8
20260508065804 43 172 3.0 6.0 0.00 0.04 0.00 72 1013.8
20260508065307 43 267 1.0 5.0 0.00 0.05 0.00 72 1013.8
20260508064804 43 309 1.0 6.0 0.00 0.05 0.00 72 1013.8
20260508064305 43 325 3.0 5.0 0.00 0.06 0.00 71 1013.7
20260508063804 43 336 2.0 3.0 0.00 0.06 0.00 71 1013.8
20260508063304 43 287 1.0 2.0 0.00 0.07 0.00 71 1013.8
20260508062804 43 305 0.0 1.0 0.00 0.07 0.00 71 1013.8
20260508062306 43 318 0.0 2.0 0.00 0.07 0.00 71 1013.8
20260508061804 43 4 1.0 2.0 0.00 0.08 0.00 71 1013.9
20260508061304 44 357 3.0 5.0 0.00 0.08 0.00 70 1013.8
20260508060804 44 23 2.0 3.0 0.00 0.09 0.00 70 1013.9
20260508060304 44 88 0.0 3.0 0.00 0.09 0.00 70 1013.9
20260508055803 44 108 1.0 2.0 0.00 0.09 0.00 70 1013.9
20260508055306 44 23 0.0 0.0 0.00 0.09 0.00 70 1013.9
20260508054804 44 23 0.0 3.0 0.00 0.09 0.00 70 1013.9
20260508054304 44 6 2.0 3.0 0.00 0.09 0.00 69 1013.9
20260508053804 45 6 2.0 5.0 0.00 0.10 0.00 69 1013.9
20260508053304 45 319 2.0 5.0 0.00 0.10 0.00 69 1013.9
20260508052804 45 350 3.0 3.0 0.00 0.10 0.00 69 1013.9
20260508052306 45 5 1.0 2.0 0.00 0.10 0.00 69 1013.9
20260508051804 45 116 1.0 5.0 0.00 0.10 0.00 68 1014.1
20260508051304 45 62 0.0 2.0 0.00 0.10 0.00 68 1014.0
20260508050804 45 287 1.0 5.0 0.00 0.10 0.00 68 1014.0
20260508050304 45 322 3.0 6.0 0.00 0.10 0.00 68 1013.9